Location: Arnolds Mill
(42.3415°N, 73.5951°W)
Time: 04:49:00
(UTC+00:00)

Oscar 11 - Pass Details

Date: 12 May 2026
Orbit: 591 x 601 km, 97.8° (Epoch: 11 June)

Event Time Altitude Azimuth Distance (km) Brightness Sun altitude
Rises 07:58:40 0° 20° (NNE) 2,860 11.7 -15.6°
Reaches altitude 10° 08:00:57 10° 28° (NNE) 1,952 10.8 -15.3°
Maximum altitude 08:04:57 40° 98° (E) 895 8.2 -14.8°
Drops below altitude 10° 08:08:55 10° 168° (SSE) 1,934 9.3 -14.2°
Enters shadow 08:09:44 - 172° (S) 2,258 9.6 -14.1°
